Weather History for KFAR - March, 2013

Change the Weather History Date:

Sunday, March 24, 2013

  Actual Average Record
Temperature  
Mean Temperature 21 °F 32 °F  
Max Temperature 30 °F 41 °F 70 °F (1945)
Min Temperature 11 °F 23 °F -20 °F (1882)
Degree Days  
Heating Degree Days 44 33  
Month to date heating degree days 1189 936  
Since 1 July heating degree days 7780 7614  
Cooling Degree Days 0 0  
Month to date cooling degree days 0 0  
Year to date cooling degree days 0 0  
Moisture  
Dew Point 16 °F    
Average Humidity 76    
Maximum Humidity 84    
Minimum Humidity 68    
Precipitation  
Precipitation T in 0.04 in 0.75 in (1914)
Month to date precipitation 1.38 1.00  
Year to date precipitation 3.57 2.31  
Snow  
Snow T in 0.20 in 7.10 in (1936)
Month to date snowfall 14.6 7.8  
Since 1 July snowfall 51.7 45.8  
Snow Depth 17.00 in    
Sea Level Pressure  
Sea Level Pressure 30.21 in    
Wind  
Wind Speed 13 mph (NNW)    
Max Wind Speed 21 mph    
Max Gust Speed 25 mph    
Visibility 10 miles    
Events Snow    
T = Trace of Precipitation, MM = Missing Value Source: NWS Daily Summary

Daily Weather History Graph

Daily Weather History Graph

Search for Another Location

Airport or City:

Trip Planner

Search our weather history database for the weather conditions in past years. The results will help you decide how hot, cold, wet, or windy it might be!

Date:

Astronomy

Mar. 24, 2013 Rise Set
Actual Time 7:21 AM CDT 7:45 PM CDT
Civil Twilight 6:51 AM CDT 8:16 PM CDT
Nautical Twilight 6:15 AM CDT 8:52 PM CDT
Astronomical Twilight 5:38 AM CDT 9:29 PM CDT
Moon 5:07 PM CDT (3/24) 5:41 AM CDT (3/24)
Length of Visible Light 13h 25m
Length of Day
12h 24m
Waxing Gibbous, 92% of the Moon is Illuminated
Mar 24
Waxing Gibbous
Mar 27
Full
Apr 2
Last Quarter
Apr 10
New
Apr 18
First Quarter

Hourly Weather History & Observations

Time (CDT) Temp. Windchill Dew Point Humidity Pressure Visibility Wind Dir Wind Speed Gust Speed Precip Events Conditions
12:53 AM 10.9 °F - 7.0 °F 84% 30.23 in 10.0 mi Calm Calm - N/A   Overcast
1:53 AM 12.0 °F 4.1 °F 9.0 °F 88% 30.22 in 10.0 mi NNW 4.6 mph - N/A   Overcast
2:53 AM 12.9 °F 2.6 °F 9.0 °F 84% 30.22 in 10.0 mi NNW 6.9 mph - N/A   Overcast
3:53 AM 12.9 °F 5.2 °F 9.0 °F 84% 30.21 in 10.0 mi NW 4.6 mph - N/A   Overcast
4:53 AM 14.0 °F 6.5 °F 10.0 °F 84% 30.20 in 5.0 mi NNW 4.6 mph - 0.00 in Snow Light Snow
5:53 AM 17.1 °F 7.6 °F 12.0 °F 81% 30.19 in 4.0 mi NNW 6.9 mph - 0.00 in Snow Light Snow
6:53 AM 18.0 °F 8.7 °F 12.9 °F 81% 30.20 in 8.0 mi North 6.9 mph - 0.00 in   Overcast
7:53 AM 18.0 °F 8.7 °F 14.0 °F 84% 30.21 in 10.0 mi North 6.9 mph - N/A   Overcast
8:53 AM 19.0 °F 9.0 °F 15.1 °F 85% 30.20 in 10.0 mi North 8.1 mph - N/A   Overcast
9:53 AM 19.9 °F 7.9 °F 15.1 °F 81% 30.20 in 10.0 mi North 11.5 mph - N/A   Overcast
10:53 AM 21.9 °F 10.4 °F 16.0 °F 78% 30.21 in 10.0 mi North 11.5 mph - N/A   Scattered Clouds
11:53 AM 27.0 °F 18.0 °F 18.0 °F 69% 30.20 in 10.0 mi NNE 9.2 mph - N/A   Clear
12:53 PM 28.0 °F 17.5 °F 19.9 °F 72% 30.20 in 10.0 mi North 12.7 mph - N/A   Partly Cloudy
1:53 PM 30.0 °F 18.7 °F 23.0 °F 75% 30.19 in 10.0 mi NNW 16.1 mph - N/A   Clear
2:53 PM 28.9 °F 16.9 °F 21.9 °F 75% 30.19 in 10.0 mi NNW 17.3 mph - N/A   Clear
3:53 PM 28.0 °F 15.3 °F 21.0 °F 75% 30.20 in 10.0 mi NNW 18.4 mph - N/A   Overcast
4:53 PM 28.0 °F 15.3 °F 21.0 °F 75% 30.20 in 10.0 mi NNW 18.4 mph - N/A   Overcast
5:53 PM 26.1 °F 12.7 °F 19.9 °F 78% 30.21 in 10.0 mi NNW 18.4 mph - N/A   Overcast
6:53 PM 25.0 °F 10.9 °F 19.0 °F 78% 30.22 in 10.0 mi NNW 19.6 mph - N/A   Overcast
7:53 PM 25.0 °F 12.2 °F 19.0 °F 78% 30.23 in 10.0 mi NNW 16.1 mph - N/A   Overcast
8:53 PM 24.1 °F 10.6 °F 19.0 °F 81% 30.25 in 10.0 mi NNW 17.3 mph - N/A   Overcast
9:53 PM 24.1 °F 10.1 °F 18.0 °F 77% 30.25 in 10.0 mi North 18.4 mph - N/A   Overcast
10:53 PM 24.1 °F 10.6 °F 19.0 °F 81% 30.25 in 10.0 mi North 17.3 mph - N/A   Overcast
11:53 PM 24.1 °F 11.0 °F 18.0 °F 77% 30.25 in 10.0 mi North 16.1 mph - N/A   Overcast